����������;��������(kVARh)
2016-08-29 00:00;0,1
2016-08-29 00:15;1,05
2016-08-29 00:30;1,1
2016-08-29 00:45;2,15
2016-08-29 01:00;0
2016-08-29 01:15;0,05
2016-08-29 01:30;0
2016-08-29 01:45;0,45
2016-08-29 02:00;0,2
2016-08-29 02:15;0
2016-08-29 02:30;0
2016-08-29 02:45;1,3
2016-08-29 03:00;0,2
2016-08-29 03:15;0
2016-08-29 03:30;0,45
2016-08-29 03:45;2,65
2016-08-29 04:00;0,4
2016-08-29 04:15;0
2016-08-29 04:30;0,7
2016-08-29 04:45;1,55
2016-08-29 05:00;0
2016-08-29 05:15;0,05
2016-08-29 05:30;1,4
2016-08-29 05:45;0,3
2016-08-29 06:00;0
2016-08-29 06:15;0,05
2016-08-29 06:30;1,1
2016-08-29 06:45;0
2016-08-29 07:00;0,65
2016-08-29 07:15;5,4
2016-08-29 07:30;0,7
2016-08-29 07:45;14,25
2016-08-29 08:00;15,85
2016-08-29 08:15;19,85
2016-08-29 08:30;11,05
2016-08-29 08:45;15,35
2016-08-29 09:00;20,9
2016-08-29 09:15;16,65
2016-08-29 09:30;22,5
2016-08-29 09:45;23,8
2016-08-29 10:00;22,85
2016-08-29 10:15;28,45
2016-08-29 10:30;22,1
2016-08-29 10:45;29
2016-08-29 11:00;33,3
2016-08-29 11:15;25,8
2016-08-29 11:30;31,05
2016-08-29 11:45;48,95
2016-08-29 12:00;38,8
2016-08-29 12:15;39,5
2016-08-29 12:30;51,9
2016-08-29 12:45;48,3
2016-08-29 13:00;53,1
2016-08-29 13:15;45,9
2016-08-29 13:30;50,2
2016-08-29 13:45;47,25
2016-08-29 14:00;45,15
2016-08-29 14:15;40,15
2016-08-29 14:30;45,85
2016-08-29 14:45;56,4
2016-08-29 15:00;52,35
2016-08-29 15:15;50,95
2016-08-29 15:30;51,4
2016-08-29 15:45;47,35
2016-08-29 16:00;49,65
2016-08-29 16:15;51
2016-08-29 16:30;43,2
2016-08-29 16:45;44,65
2016-08-29 17:00;46,9
2016-08-29 17:15;34,6
2016-08-29 17:30;29,65
2016-08-29 17:45;33,1
2016-08-29 18:00;33,55
2016-08-29 18:15;26,05
2016-08-29 18:30;20,2
2016-08-29 18:45;19,25
2016-08-29 19:00;15,5
2016-08-29 19:15;10,05
2016-08-29 19:30;14,1
2016-08-29 19:45;8,1
2016-08-29 20:00;9,8
2016-08-29 20:15;12,15
2016-08-29 20:30;6
2016-08-29 20:45;3,2
2016-08-29 21:00;3,65
2016-08-29 21:15;6,5
2016-08-29 21:30;6,3
2016-08-29 21:45;6,25
2016-08-29 22:00;7,55
2016-08-29 22:15;7,95
2016-08-29 22:30;7,6
2016-08-29 22:45;7,8
2016-08-29 23:00;5,45
2016-08-29 23:15;4,9
2016-08-29 23:30;4,35
2016-08-29 23:45;2,6
2016-08-30 00:00;1,85
2016-08-30 00:15;3,75
2016-08-30 00:30;6,35
2016-08-30 00:45;7,3
2016-08-30 01:00;7,45
2016-08-30 01:15;8,4
2016-08-30 01:30;2,25
2016-08-30 01:45;2,1
2016-08-30 02:00;1,5
2016-08-30 02:15;2,35
2016-08-30 02:30;2,25
2016-08-30 02:45;0,4
2016-08-30 03:00;0
2016-08-30 03:15;0
2016-08-30 03:30;0,05
2016-08-30 03:45;0,4
2016-08-30 04:00;0,7
2016-08-30 04:15;0,2
2016-08-30 04:30;0,4
2016-08-30 04:45;0,15
2016-08-30 05:00;0,4
2016-08-30 05:15;0,4
2016-08-30 05:30;0,05
2016-08-30 05:45;0,15
2016-08-30 06:00;3,6
2016-08-30 06:15;6,75
2016-08-30 06:30;5,4
2016-08-30 06:45;4,9
2016-08-30 07:00;1,4
2016-08-30 07:15;3,75
2016-08-30 07:30;8,25
2016-08-30 07:45;18,75
2016-08-30 08:00;18,75
2016-08-30 08:15;15,6
2016-08-30 08:30;21,35
2016-08-30 08:45;17,6
2016-08-30 09:00;25,6
2016-08-30 09:15;28,75
2016-08-30 09:30;16
2016-08-30 09:45;26,65
2016-08-30 10:00;34,9
2016-08-30 10:15;28,55
2016-08-30 10:30;25,55
2016-08-30 10:45;35,3
2016-08-30 11:00;35,1
2016-08-30 11:15;28,65
2016-08-30 11:30;30,6
2016-08-30 11:45;31,55
2016-08-30 12:00;35,5
2016-08-30 12:15;45,1
2016-08-30 12:30;47,5
2016-08-30 12:45;48,35
2016-08-30 13:00;50,65
2016-08-30 13:15;47,7
2016-08-30 13:30;46,8
2016-08-30 13:45;44,5
2016-08-30 14:00;57,9
2016-08-30 14:15;45,05
2016-08-30 14:30;52,3
2016-08-30 14:45;56,6
2016-08-30 15:00;52,1
2016-08-30 15:15;59,1
2016-08-30 15:30;57,55
2016-08-30 15:45;51,6
2016-08-30 16:00;48,95
2016-08-30 16:15;52,75
2016-08-30 16:30;50,25
2016-08-30 16:45;49,25
2016-08-30 17:00;52,2
2016-08-30 17:15;43,5
2016-08-30 17:30;37,85
2016-08-30 17:45;38,15
2016-08-30 18:00;36,25
2016-08-30 18:15;26,75
2016-08-30 18:30;24,8
2016-08-30 18:45;24,65
2016-08-30 19:00;23
2016-08-30 19:15;17,6
2016-08-30 19:30;14,35
2016-08-30 19:45;13,5
2016-08-30 20:00;11,6
2016-08-30 20:15;8
2016-08-30 20:30;13,35
2016-08-30 20:45;13,35
2016-08-30 21:00;11,2
2016-08-30 21:15;14,5
2016-08-30 21:30;16,65
2016-08-30 21:45;17,9
2016-08-30 22:00;15,85
2016-08-30 22:15;15,95
2016-08-30 22:30;16,25
2016-08-30 22:45;16,35
2016-08-30 23:00;16,5
2016-08-30 23:15;10,5
2016-08-30 23:30;5,55
2016-08-30 23:45;1,1
2016-08-31 00:00;1
2016-08-31 00:15;0,1
2016-08-31 00:30;0,05
2016-08-31 00:45;0,6
2016-08-31 01:00;0,2
2016-08-31 01:15;0,2
2016-08-31 01:30;0,45
2016-08-31 01:45;0
2016-08-31 02:00;0,1
2016-08-31 02:15;0
2016-08-31 02:30;0,3
2016-08-31 02:45;0,05
2016-08-31 03:00;0,3
2016-08-31 03:15;0,15
2016-08-31 03:30;0,2
2016-08-31 03:45;1
2016-08-31 04:00;0,7
2016-08-31 04:15;0,7
2016-08-31 04:30;0,3
2016-08-31 04:45;0,6
2016-08-31 05:00;0,8
2016-08-31 05:15;1,1
2016-08-31 05:30;1,15
2016-08-31 05:45;2,1
2016-08-31 06:00;6,75
2016-08-31 06:15;6,4
2016-08-31 06:30;5,7
2016-08-31 06:45;10,7
2016-08-31 07:00;9,8
2016-08-31 07:15;15,2
2016-08-31 07:30;19,5
2016-08-31 07:45;24,15
2016-08-31 08:00;22,55
2016-08-31 08:15;19,55
2016-08-31 08:30;27,05
2016-08-31 08:45;21,05
2016-08-31 09:00;37,25
2016-08-31 09:15;36,45
2016-08-31 09:30;25,85
2016-08-31 09:45;32,05
2016-08-31 10:00;35,3
2016-08-31 10:15;35,9
2016-08-31 10:30;35,2
2016-08-31 10:45;36,85
2016-08-31 11:00;49,1
2016-08-31 11:15;42,55
2016-08-31 11:30;50,75
2016-08-31 11:45;49,5
2016-08-31 12:00;58,2
2016-08-31 12:15;41
2016-08-31 12:30;46,8
2016-08-31 12:45;43
2016-08-31 13:00;40,45
2016-08-31 13:15;55,15
2016-08-31 13:30;52,9
2016-08-31 13:45;49
2016-08-31 14:00;49,55
2016-08-31 14:15;53,4
2016-08-31 14:30;49,05
2016-08-31 14:45;51,3
2016-08-31 15:00;48,1
2016-08-31 15:15;43,6
2016-08-31 15:30;40,2
2016-08-31 15:45;38,2
2016-08-31 16:00;32,75
2016-08-31 16:15;37,85
2016-08-31 16:30;38
2016-08-31 16:45;34,2
2016-08-31 17:00;35,25
2016-08-31 17:15;39,15
2016-08-31 17:30;41,2
2016-08-31 17:45;33,35
2016-08-31 18:00;33,95
2016-08-31 18:15;23,55
2016-08-31 18:30;20,5
2016-08-31 18:45;20,55
2016-08-31 19:00;15,75
2016-08-31 19:15;9,25
2016-08-31 19:30;10,8
2016-08-31 19:45;7,6
2016-08-31 20:00;6,3
2016-08-31 20:15;9,25
2016-08-31 20:30;10,6
2016-08-31 20:45;8,25
2016-08-31 21:00;2,5
2016-08-31 21:15;4,65
2016-08-31 21:30;5,55
2016-08-31 21:45;7,4
2016-08-31 22:00;3,7
2016-08-31 22:15;3,2
2016-08-31 22:30;2,2
2016-08-31 22:45;3,15
2016-08-31 23:00;5,25
2016-08-31 23:15;4,7
2016-08-31 23:30;4,25
2016-08-31 23:45;1,1
2016-09-01 00:00;0,3
2016-09-01 00:15;1,1
2016-09-01 00:30;5,45
2016-09-01 00:45;7,2
2016-09-01 01:00;7,85
2016-09-01 01:15;2,35
2016-09-01 01:30;0,2
2016-09-01 01:45;0,65
2016-09-01 02:00;0,45
2016-09-01 02:15;0,6
2016-09-01 02:30;1
2016-09-01 02:45;1,1
2016-09-01 03:00;1,35
2016-09-01 03:15;1,35
2016-09-01 03:30;1,35
2016-09-01 03:45;2,45
2016-09-01 04:00;2,3
2016-09-01 04:15;2,2
2016-09-01 04:30;2,9
2016-09-01 04:45;2,3
2016-09-01 05:00;2,2
2016-09-01 05:15;3
2016-09-01 05:30;2,1
2016-09-01 05:45;3,45
2016-09-01 06:00;9,9
2016-09-01 06:15;9,25
2016-09-01 06:30;8,8
2016-09-01 06:45;7,35
2016-09-01 07:00;4,05
2016-09-01 07:15;10,55
2016-09-01 07:30;17,35
2016-09-01 07:45;26,3
2016-09-01 08:00;28
2016-09-01 08:15;34,95
2016-09-01 08:30;31,9
2016-09-01 08:45;28,1
2016-09-01 09:00;36,25
2016-09-01 09:15;29,15
2016-09-01 09:30;27,35
2016-09-01 09:45;32,55
2016-09-01 10:00;47,35
2016-09-01 10:15;45,2
2016-09-01 10:30;36,1
2016-09-01 10:45;43,15
2016-09-01 11:00;45,8
2016-09-01 11:15;44,85
2016-09-01 11:30;40,9
2016-09-01 11:45;44,5
2016-09-01 12:00;38,35
2016-09-01 12:15;41,1
2016-09-01 12:30;44,6
2016-09-01 12:45;45,3
2016-09-01 13:00;49,65
2016-09-01 13:15;49,25
2016-09-01 13:30;49,45
2016-09-01 13:45;46,9
2016-09-01 14:00;38,25
2016-09-01 14:15;39,9
2016-09-01 14:30;43
2016-09-01 14:45;52,45
2016-09-01 15:00;47,95
2016-09-01 15:15;44
2016-09-01 15:30;53,15
2016-09-01 15:45;41,45
2016-09-01 16:00;40,95
2016-09-01 16:15;54,5
2016-09-01 16:30;39,9
2016-09-01 16:45;43,1
2016-09-01 17:00;47,8
2016-09-01 17:15;48,6
2016-09-01 17:30;36,55
2016-09-01 17:45;39,35
2016-09-01 18:00;31,3
2016-09-01 18:15;29,3
2016-09-01 18:30;30,4
2016-09-01 18:45;30,55
2016-09-01 19:00;26,3
2016-09-01 19:15;19,65
2016-09-01 19:30;15,7
2016-09-01 19:45;15,3
2016-09-01 20:00;11,7
2016-09-01 20:15;15,5
2016-09-01 20:30;15,1
2016-09-01 20:45;15,5
2016-09-01 21:00;16,7
2016-09-01 21:15;18,6
2016-09-01 21:30;18,95
2016-09-01 21:45;21,65
2016-09-01 22:00;25,4
2016-09-01 22:15;21,95
2016-09-01 22:30;18,1
2016-09-01 22:45;19,4
2016-09-01 23:00;20,5
2016-09-01 23:15;20,95
2016-09-01 23:30;22,7
2016-09-01 23:45;23,65
2016-09-02 00:00;22,5
2016-09-02 00:15;18,35
2016-09-02 00:30;18,1
2016-09-02 00:45;14,45
2016-09-02 01:00;10,05
2016-09-02 01:15;6,55
2016-09-02 01:30;5,5
2016-09-02 01:45;4,5
2016-09-02 02:00;3,45
2016-09-02 02:15;3
2016-09-02 02:30;2,9
2016-09-02 02:45;2,9
2016-09-02 03:00;2,3
2016-09-02 03:15;1,4
2016-09-02 03:30;2,85
2016-09-02 03:45;2,5
2016-09-02 04:00;2,3
2016-09-02 04:15;3,1
2016-09-02 04:30;2,5
2016-09-02 04:45;2,3
2016-09-02 05:00;2,2
2016-09-02 05:15;2,55
2016-09-02 05:30;2,05
2016-09-02 05:45;2,4
2016-09-02 06:00;6,75
2016-09-02 06:15;9,65
2016-09-02 06:30;9,25
2016-09-02 06:45;9,2
2016-09-02 07:00;5,7
2016-09-02 07:15;7,6
2016-09-02 07:30;12,3
2016-09-02 07:45;30,15
2016-09-02 08:00;32,55
2016-09-02 08:15;37,4
2016-09-02 08:30;39,8
2016-09-02 08:45;34,9
2016-09-02 09:00;37,95
2016-09-02 09:15;37,85
2016-09-02 09:30;34
2016-09-02 09:45;28,7
2016-09-02 10:00;34,65
2016-09-02 10:15;44,7
2016-09-02 10:30;37,4
2016-09-02 10:45;34
2016-09-02 11:00;36,05
2016-09-02 11:15;42
2016-09-02 11:30;32,9
2016-09-02 11:45;37
2016-09-02 12:00;41,5
2016-09-02 12:15;51,15
2016-09-02 12:30;46,85
2016-09-02 12:45;48,4
2016-09-02 13:00;45,95
2016-09-02 13:15;43,55
2016-09-02 13:30;44,3
2016-09-02 13:45;52,1
2016-09-02 14:00;42,9
2016-09-02 14:15;42,7
2016-09-02 14:30;40,1
2016-09-02 14:45;35,95
2016-09-02 15:00;36,7
2016-09-02 15:15;43,55
2016-09-02 15:30;43,7
2016-09-02 15:45;37,45
2016-09-02 16:00;40,6
2016-09-02 16:15;44,45
2016-09-02 16:30;38,85
2016-09-02 16:45;40,25
2016-09-02 17:00;43,7
2016-09-02 17:15;40,05
2016-09-02 17:30;33,15
2016-09-02 17:45;32,55
2016-09-02 18:00;34,6
2016-09-02 18:15;27,1
2016-09-02 18:30;24,6
2016-09-02 18:45;22,65
2016-09-02 19:00;19,75
2016-09-02 19:15;16,35
2016-09-02 19:30;14,5
2016-09-02 19:45;11,3
2016-09-02 20:00;11,3
2016-09-02 20:15;11,85
2016-09-02 20:30;18
2016-09-02 20:45;16,7
2016-09-02 21:00;14,4
2016-09-02 21:15;17,9
2016-09-02 21:30;20,65
2016-09-02 21:45;19,8
2016-09-02 22:00;18,9
2016-09-02 22:15;21,15
2016-09-02 22:30;14,25
2016-09-02 22:45;15,5
2016-09-02 23:00;16,4
2016-09-02 23:15;15,5
2016-09-02 23:30;12,7
2016-09-02 23:45;14,1
2016-09-03 00:00;15,95
2016-09-03 00:15;16,75
2016-09-03 00:30;12,7
2016-09-03 00:45;8,7
2016-09-03 01:00;5,15
2016-09-03 01:15;4,75
2016-09-03 01:30;7,15
2016-09-03 01:45;6,95
2016-09-03 02:00;6,1
2016-09-03 02:15;5,1
2016-09-03 02:30;4,75
2016-09-03 02:45;5,35
2016-09-03 03:00;4,9
2016-09-03 03:15;5,45
2016-09-03 03:30;4,85
2016-09-03 03:45;5,4
2016-09-03 04:00;6,1
2016-09-03 04:15;4,95
2016-09-03 04:30;4,75
2016-09-03 04:45;4,75
2016-09-03 05:00;4,25
2016-09-03 05:15;5,45
2016-09-03 05:30;5,05
2016-09-03 05:45;6,1
2016-09-03 06:00;5,95
2016-09-03 06:15;5,8
2016-09-03 06:30;7,75
2016-09-03 06:45;4,5
2016-09-03 07:00;4,5
2016-09-03 07:15;6,1
2016-09-03 07:30;5,15
2016-09-03 07:45;7,75
2016-09-03 08:00;7,75
2016-09-03 08:15;8,6
2016-09-03 08:30;7,85
2016-09-03 08:45;9,9
2016-09-03 09:00;9,05
2016-09-03 09:15;8,45
2016-09-03 09:30;5,6
2016-09-03 09:45;5,4
2016-09-03 10:00;8,15
2016-09-03 10:15;8,05
2016-09-03 10:30;7,4
2016-09-03 10:45;6,25
2016-09-03 11:00;9,45
2016-09-03 11:15;7,45
2016-09-03 11:30;8,5
2016-09-03 11:45;10,45
2016-09-03 12:00;8,3
2016-09-03 12:15;10,75
2016-09-03 12:30;10,55
2016-09-03 12:45;10,45
2016-09-03 13:00;15,7
2016-09-03 13:15;17,15
2016-09-03 13:30;16,65
2016-09-03 13:45;13,95
2016-09-03 14:00;13,6
2016-09-03 14:15;13,9
2016-09-03 14:30;12,3
2016-09-03 14:45;10,1
2016-09-03 15:00;11,75
2016-09-03 15:15;13,45
2016-09-03 15:30;13,5
2016-09-03 15:45;13,3
2016-09-03 16:00;13,45
2016-09-03 16:15;14,2
2016-09-03 16:30;16
2016-09-03 16:45;19,55
2016-09-03 17:00;21,7
2016-09-03 17:15;22,15
2016-09-03 17:30;20,75
2016-09-03 17:45;20,3
2016-09-03 18:00;18,65
2016-09-03 18:15;17,2
2016-09-03 18:30;18,1
2016-09-03 18:45;18,15
2016-09-03 19:00;18,2
2016-09-03 19:15;17,9
2016-09-03 19:30;16,2
2016-09-03 19:45;14,55
2016-09-03 20:00;15,75
2016-09-03 20:15;13,1
2016-09-03 20:30;11,15
2016-09-03 20:45;10,85
2016-09-03 21:00;6,5
2016-09-03 21:15;6,7
2016-09-03 21:30;8,6
2016-09-03 21:45;6,55
2016-09-03 22:00;6,25
2016-09-03 22:15;8,35
2016-09-03 22:30;9,35
2016-09-03 22:45;9,4
2016-09-03 23:00;10,35
2016-09-03 23:15;12
2016-09-03 23:30;12,65
2016-09-03 23:45;15,6
2016-09-04 00:00;11,85
2016-09-04 00:15;1,6
2016-09-04 00:30;0,2
2016-09-04 00:45;0,45
2016-09-04 01:00;1,05
2016-09-04 01:15;0
2016-09-04 01:30;0
2016-09-04 01:45;0
2016-09-04 02:00;0,35
2016-09-04 02:15;0,4
2016-09-04 02:30;0,5
2016-09-04 02:45;3,15
2016-09-04 03:00;3,45
2016-09-04 03:15;3,2
2016-09-04 03:30;0,3
2016-09-04 03:45;1,2
2016-09-04 04:00;0,8
2016-09-04 04:15;1,45
2016-09-04 04:30;1,4
2016-09-04 04:45;1,5
2016-09-04 05:00;1,45
2016-09-04 05:15;1,1
2016-09-04 05:30;1,85
2016-09-04 05:45;3,25
2016-09-04 06:00;3,5
2016-09-04 06:15;2,7
2016-09-04 06:30;1,85
2016-09-04 06:45;2,45
2016-09-04 07:00;4
2016-09-04 07:15;4,1
2016-09-04 07:30;4,1
2016-09-04 07:45;2,9
2016-09-04 08:00;1,8
2016-09-04 08:15;2,1
2016-09-04 08:30;5,9
2016-09-04 08:45;4,7
2016-09-04 09:00;4,4
2016-09-04 09:15;4,3
2016-09-04 09:30;3,3
2016-09-04 09:45;2,85
2016-09-04 10:00;3,3
2016-09-04 10:15;2,5
2016-09-04 10:30;1,85
2016-09-04 10:45;2,6
2016-09-04 11:00;1,75
2016-09-04 11:15;1,2
2016-09-04 11:30;2,9
2016-09-04 11:45;1,6
2016-09-04 12:00;2,25
2016-09-04 12:15;1,9
2016-09-04 12:30;1,85
2016-09-04 12:45;1,35
2016-09-04 13:00;7,5
2016-09-04 13:15;8,4
2016-09-04 13:30;6,4
2016-09-04 13:45;5
2016-09-04 14:00;7,65
2016-09-04 14:15;6,85
2016-09-04 14:30;7,2
2016-09-04 14:45;6,9
2016-09-04 15:00;6,2
2016-09-04 15:15;8,1
2016-09-04 15:30;9,3
2016-09-04 15:45;10,05
2016-09-04 16:00;10,55
2016-09-04 16:15;10,75
2016-09-04 16:30;9,55
2016-09-04 16:45;10,2
2016-09-04 17:00;10,2
2016-09-04 17:15;8
2016-09-04 17:30;9,5
2016-09-04 17:45;9,65
2016-09-04 18:00;9,55
2016-09-04 18:15;9
2016-09-04 18:30;8,8
2016-09-04 18:45;7,1
2016-09-04 19:00;7,6
2016-09-04 19:15;8,3
2016-09-04 19:30;8,2
2016-09-04 19:45;6,75
2016-09-04 20:00;7,4
2016-09-04 20:15;6,25
2016-09-04 20:30;6,2
2016-09-04 20:45;5,6
2016-09-04 21:00;4,6
2016-09-04 21:15;5,5
2016-09-04 21:30;6,5
2016-09-04 21:45;2,75
2016-09-04 22:00;2,25
2016-09-04 22:15;1,75
2016-09-04 22:30;3
2016-09-04 22:45;3,7
2016-09-04 23:00;3,3
2016-09-04 23:15;2,7
2016-09-04 23:30;0,5
2016-09-04 23:45;3

